GEC8264 EDDF-GOBD

Flight info

Callsign GEC8264
Flight time N/A
Altitude 31000
Route ANEKI2L ANEKI Y163 HERBI Y164 OLBEN/N0485F330 N869 NINTU DCT PIMAK DCT TITVA DCT GAI DCT PERDU DCT EXEMU N869 NASOS L27 BLN N869 MGA M985 PIMOS N869 GALTO UN869 SLK UB11 PELAX UN869 MABAP/N0484F350 UN869 ADM UR975 DIDAN/N0481F340 UR975 ZRT/N0481F360 UR975 SAKLI SAKLI1V
Aircraft MD11/H-SDE1E2E3FGHIJ2J3J4J5M1RWXY/LB1D1

Departure

Time 2026-04-15 14:49
Airport Frankfurt Main Airport (EDDF)

Arrival

Time N/A
Airport Blaise Diagne International Airport (GOBD)
Time Latitude Longitude Altitude Speed Heading
2026-04-15 13:42 50.03745 8.53230 350 ft 0 kts 339°
2026-04-15 14:34 50.03727 8.53241 359 ft 4 kts 339°
2026-04-15 14:34 50.03703 8.53254 359 ft 4 kts 339°
2026-04-15 14:34 50.03681 8.53271 359 ft 4 kts 312°
2026-04-15 14:34 50.03669 8.53300 359 ft 4 kts 273°
2026-04-15 14:35 50.03672 8.53339 359 ft 4 kts 250°
2026-04-15 14:35 50.03682 8.53377 359 ft 4 kts 248°
2026-04-15 14:35 50.03684 8.53386 359 ft 1 kts 249°
2026-04-15 14:40 50.03681 8.53375 357 ft 3 kts 249°
2026-04-15 14:40 50.03670 8.53326 354 ft 7 kts 249°
2026-04-15 14:40 50.03651 8.53246 354 ft 8 kts 249°
2026-04-15 14:40 50.03633 8.53174 355 ft 6 kts 249°
2026-04-15 14:41 50.03618 8.53112 356 ft 7 kts 249°
2026-04-15 14:41 50.03597 8.53024 352 ft 10 kts 250°
2026-04-15 14:41 50.03569 8.52906 355 ft 13 kts 250°
2026-04-15 14:41 50.03539 8.52780 354 ft 12 kts 250°
2026-04-15 14:42 50.03514 8.52671 353 ft 10 kts 253°
2026-04-15 14:42 50.03507 8.52583 353 ft 7 kts 270°
2026-04-15 14:42 50.03507 8.52523 353 ft 4 kts 266°
2026-04-15 14:42 50.03501 8.52474 351 ft 5 kts 256°
2026-04-15 14:43 50.03486 8.52406 354 ft 8 kts 250°
2026-04-15 14:43 50.03463 8.52323 354 ft 8 kts 232°
2026-04-15 14:43 50.03412 8.52315 350 ft 8 kts 150°
2026-04-15 14:43 50.03398 8.52374 347 ft 4 kts 94°
2026-04-15 14:44 50.03398 8.52406 347 ft 2 kts 89°
2026-04-15 14:44 50.03398 8.52413 347 ft 0 kts 89°
2026-04-15 14:46 50.03398 8.52415 347 ft 1 kts 89°
2026-04-15 14:46 50.03398 8.52433 344 ft 3 kts 89°
2026-04-15 14:47 50.03399 8.52478 342 ft 5 kts 89°
2026-04-15 14:47 50.03400 8.52533 343 ft 6 kts 85°
2026-04-15 14:47 50.03393 8.52585 347 ft 3 kts 127°
2026-04-15 14:47 50.03381 8.52591 354 ft 1 kts 168°
2026-04-15 14:48 50.03361 8.52592 353 ft 8 kts 178°
2026-04-15 14:48 50.03139 8.52597 346 ft 68 kts 179°
2026-04-15 14:48 50.02418 8.52603 346 ft 137 kts 180°
2026-04-15 14:48 50.01275 8.52612 344 ft 188 kts 180°
2026-04-15 14:49 49.99937 8.52637 813 ft 191 kts 179°
2026-04-15 14:49 49.98636 8.52665 1666 ft 184 kts 178°
2026-04-15 14:49 49.97297 8.52769 2074 ft 205 kts 177°
2026-04-15 14:49 49.95804 8.52894 2521 ft 219 kts 177°
2026-04-15 14:50 49.94269 8.53006 3000 ft 225 kts 177°
2026-04-15 14:50 49.92717 8.53116 3768 ft 224 kts 177°
2026-04-15 14:50 49.91141 8.53229 4269 ft 236 kts 176°
2026-04-15 14:50 49.89432 8.53352 4424 ft 255 kts 177°
2026-04-15 14:51 49.87614 8.53484 4667 ft 272 kts 177°
2026-04-15 14:51 49.85665 8.53625 5145 ft 284 kts 177°
2026-04-15 14:51 49.83677 8.53769 5999 ft 287 kts 178°
2026-04-15 14:51 49.81675 8.53914 6807 ft 290 kts 178°
2026-04-15 14:52 49.79643 8.54061 7546 ft 294 kts 178°
2026-04-15 14:52 49.77584 8.54057 8261 ft 298 kts 184°
2026-04-15 14:52 49.75530 8.53849 8969 ft 302 kts 185°
2026-04-15 14:52 49.73426 8.53576 9681 ft 306 kts 186°
2026-04-15 14:53 49.71281 8.53283 10165 ft 319 kts 186°
2026-04-15 14:53 49.68994 8.52968 10284 ft 342 kts 186°
2026-04-15 14:53 49.66570 8.52638 10699 ft 353 kts 186°
2026-04-15 14:53 49.64112 8.52309 11362 ft 357 kts 186°
2026-04-15 14:54 49.61626 8.51980 12035 ft 360 kts 186°
2026-04-15 14:54 49.59153 8.51653 12677 ft 364 kts 186°
2026-04-15 14:54 49.56614 8.51317 13319 ft 367 kts 186°
2026-04-15 14:54 49.54054 8.50980 13945 ft 371 kts 186°
2026-04-15 14:55 49.51472 8.50639 14487 ft 374 kts 186°
2026-04-15 14:55 49.48864 8.50296 15016 ft 378 kts 186°
2026-04-15 14:55 49.46235 8.49950 15536 ft 381 kts 186°
2026-04-15 14:55 49.43579 8.49601 16025 ft 384 kts 186°
2026-04-15 14:56 49.40904 8.49250 16509 ft 388 kts 186°
2026-04-15 14:56 49.38200 8.48895 16990 ft 392 kts 186°
2026-04-15 14:56 49.35473 8.48538 17477 ft 395 kts 186°
2026-04-15 14:56 49.32725 8.48179 17952 ft 398 kts 186°
2026-04-15 14:57 49.29952 8.47819 18424 ft 401 kts 186°
2026-04-15 14:57 49.27198 8.47462 18819 ft 404 kts 186°
2026-04-15 14:57 49.24389 8.47097 19208 ft 407 kts 186°
2026-04-15 14:57 49.21561 8.46729 19607 ft 409 kts 186°
2026-04-15 14:58 49.18710 8.46357 19957 ft 412 kts 186°
2026-04-15 14:58 49.15842 8.45983 20334 ft 415 kts 186°
2026-04-15 14:58 49.12954 8.45608 20703 ft 418 kts 186°
2026-04-15 14:58 49.10051 8.45230 21082 ft 420 kts 186°
2026-04-15 14:59 49.07129 8.44821 21450 ft 423 kts 188°
2026-04-15 14:59 49.04224 8.44109 21828 ft 424 kts 193°
2026-04-15 14:59 49.01330 8.43169 22208 ft 426 kts 194°
2026-04-15 14:59 48.98435 8.42137 22575 ft 429 kts 195°
2026-04-15 15:00 48.95518 8.41075 22956 ft 432 kts 195°
2026-04-15 15:00 48.92618 8.40026 23351 ft 435 kts 195°
2026-04-15 15:00 48.89662 8.38972 23748 ft 438 kts 194°
2026-04-15 15:00 48.86682 8.37921 24084 ft 441 kts 194°
2026-04-15 15:01 48.83681 8.36872 24429 ft 444 kts 194°
2026-04-15 15:01 48.80664 8.35823 24775 ft 446 kts 194°
2026-04-15 15:01 48.77630 8.34751 25123 ft 449 kts 195°
2026-04-15 15:01 48.74575 8.33648 25415 ft 453 kts 195°
2026-04-15 15:02 48.71497 8.32525 25767 ft 456 kts 195°
2026-04-15 15:02 48.68447 8.31409 26086 ft 459 kts 195°
2026-04-15 15:02 48.65296 8.30257 26441 ft 461 kts 195°
2026-04-15 15:02 48.62212 8.29131 26780 ft 464 kts 195°
2026-04-15 15:03 48.59062 8.27983 27126 ft 467 kts 195°
2026-04-15 15:03 48.55895 8.26832 27457 ft 470 kts 195°
2026-04-15 15:03 48.52709 8.25676 27774 ft 472 kts 195°
2026-04-15 15:03 48.49503 8.24513 28113 ft 475 kts 195°
2026-04-15 15:04 48.46285 8.23341 28434 ft 478 kts 195°
2026-04-15 15:04 48.43044 8.22157 28754 ft 480 kts 195°
2026-04-15 15:04 48.39790 8.20966 29070 ft 483 kts 195°
2026-04-15 15:04 48.36517 8.19767 29366 ft 486 kts 195°
2026-04-15 15:05 48.33222 8.18562 29638 ft 489 kts 195°
2026-04-15 15:05 48.29905 8.17351 29918 ft 492 kts 195°
2026-04-15 15:05 48.26623 8.16154 30267 ft 492 kts 195°
2026-04-15 15:05 48.23318 8.14821 30594 ft 491 kts 199°
2026-04-15 15:06 48.16902 8.11403 31144 ft 490 kts 203°
2026-04-15 15:06 48.10519 8.07654 31198 ft 495 kts 203°
2026-04-15 15:07 48.04086 8.03923 31195 ft 496 kts 203°
2026-04-15 15:07 47.97630 8.00250 31194 ft 496 kts 203°
2026-04-15 15:08 47.91166 7.96600 31200 ft 497 kts 202°
2026-04-15 15:08 47.84689 7.92952 31222 ft 498 kts 202°
2026-04-15 15:09 47.81459 7.91136 31567 ft 496 kts 202°
2026-04-15 15:09 47.78272 7.89346 31858 ft 495 kts 202°
2026-04-15 15:09 47.75052 7.87539 32145 ft 495 kts 202°
2026-04-15 15:09 47.71827 7.85731 32363 ft 496 kts 202°
2026-04-15 15:10 47.68600 7.83925 32623 ft 495 kts 202°
2026-04-15 15:10 47.65374 7.82122 32882 ft 495 kts 203°
2026-04-15 15:10 47.62155 7.80325 33122 ft 495 kts 203°
2026-04-15 15:10 47.58931 7.78529 33186 ft 494 kts 203°
2026-04-15 15:11 47.52496 7.74949 33198 ft 494 kts 202°
2026-04-15 15:11 47.46051 7.71375 33211 ft 495 kts 202°
2026-04-15 15:12 47.39637 7.67850 33208 ft 495 kts 202°
2026-04-15 15:12 47.33210 7.64232 33200 ft 494 kts 206°
2026-04-15 15:13 47.30196 7.61852 33206 ft 490 kts 217°
2026-04-15 15:13 47.27539 7.58748 33204 ft 486 kts 227°
2026-04-15 15:13 47.23344 7.51050 33209 ft 482 kts 238°
2026-04-15 15:14 47.19499 7.42974 33210 ft 481 kts 237°
2026-04-15 15:14 47.15472 7.35138 33209 ft 481 kts 235°
2026-04-15 15:15 47.11346 7.27492 33224 ft 481 kts 234°
2026-04-15 15:15 47.07164 7.19822 33198 ft 481 kts 234°
2026-04-15 15:16 47.02983 7.12169 33199 ft 481 kts 234°
2026-04-15 15:16 46.98799 7.04518 33187 ft 481 kts 234°
2026-04-15 15:17 46.94614 6.96874 33186 ft 482 kts 234°
2026-04-15 15:17 46.90436 6.89268 33184 ft 478 kts 234°
2026-04-15 15:18 46.86286 6.81750 33185 ft 478 kts 234°
2026-04-15 15:18 46.82110 6.74191 33185 ft 478 kts 234°
2026-04-15 15:19 46.77931 6.66642 33191 ft 478 kts 234°
2026-04-15 15:19 46.73733 6.59082 33195 ft 480 kts 233°
2026-04-15 15:20 46.69387 6.51673 33200 ft 482 kts 231°
2026-04-15 15:20 46.64957 6.44393 33197 ft 478 kts 231°
2026-04-15 15:21 46.60552 6.37166 33198 ft 477 kts 231°
2026-04-15 15:21 46.56188 6.29991 33198 ft 477 kts 231°
2026-04-15 15:22 46.51791 6.22769 33199 ft 477 kts 231°
2026-04-15 15:22 46.47390 6.15561 33201 ft 477 kts 231°
2026-04-15 15:23 46.42987 6.08371 33197 ft 477 kts 231°
2026-04-15 15:23 46.38605 6.01231 33180 ft 477 kts 231°
2026-04-15 15:24 46.34211 5.94095 33186 ft 474 kts 231°
2026-04-15 15:24 46.29863 5.86953 33186 ft 472 kts 234°
2026-04-15 15:25 46.25992 5.79319 33186 ft 470 kts 238°
2026-04-15 15:25 46.22346 5.71480 33184 ft 470 kts 239°
2026-04-15 15:26 46.18710 5.63693 33185 ft 471 kts 239°
2026-04-15 15:26 46.15016 5.55891 33194 ft 470 kts 238°
2026-04-15 15:27 46.11316 5.48171 33177 ft 467 kts 238°
2026-04-15 15:27 46.07622 5.40481 33187 ft 466 kts 238°
2026-04-15 15:28 46.03930 5.32800 33173 ft 466 kts 238°
2026-04-15 15:28 46.00229 5.25114 33183 ft 467 kts 238°
2026-04-15 15:29 45.96521 5.17437 33182 ft 467 kts 238°
2026-04-15 15:29 45.92813 5.09782 33181 ft 464 kts 238°
2026-04-15 15:30 45.89158 5.02256 33181 ft 462 kts 237°
2026-04-15 15:30 45.85477 4.94694 33177 ft 463 kts 238°
2026-04-15 15:31 45.81778 4.87118 33182 ft 464 kts 238°
2026-04-15 15:31 45.78700 4.80828 33184 ft 464 kts 237°
2026-04-15 15:32 45.74991 4.73269 33182 ft 464 kts 237°
2026-04-15 15:32 45.70689 4.64528 33175 ft 460 kts 237°
2026-04-15 15:33 45.66999 4.57066 33179 ft 460 kts 237°
2026-04-15 15:33 45.63879 4.50829 33182 ft 460 kts 237°
2026-04-15 15:34 45.60186 4.43432 33184 ft 460 kts 237°
2026-04-15 15:34 45.56476 4.35982 33184 ft 460 kts 237°
2026-04-15 15:35 45.52768 4.28542 33184 ft 460 kts 237°
2026-04-15 15:35 45.49071 4.21146 33178 ft 457 kts 237°
2026-04-15 15:36 45.45380 4.13778 33182 ft 457 kts 237°
2026-04-15 15:36 45.41682 4.06418 33179 ft 457 kts 237°
2026-04-15 15:37 45.37932 3.99186 33176 ft 458 kts 233°
2026-04-15 15:37 45.33734 3.92355 33174 ft 459 kts 230°
2026-04-15 15:38 45.29410 3.85653 33178 ft 461 kts 230°
2026-04-15 15:38 45.25107 3.78949 33180 ft 458 kts 230°
2026-04-15 15:39 45.20834 3.72251 33163 ft 458 kts 230°
2026-04-15 15:39 45.16591 3.65603 33166 ft 458 kts 230°
2026-04-15 15:40 45.12318 3.58922 33157 ft 458 kts 231°
2026-04-15 15:40 45.08027 3.52231 33162 ft 459 kts 230°
2026-04-15 15:41 45.03729 3.45547 33164 ft 459 kts 230°
2026-04-15 15:41 44.99429 3.38875 33161 ft 459 kts 230°
2026-04-15 15:42 44.95123 3.32211 33175 ft 459 kts 230°
2026-04-15 15:42 44.90808 3.25548 33161 ft 460 kts 230°
2026-04-15 15:43 44.86485 3.18888 33170 ft 460 kts 230°
2026-04-15 15:43 44.82184 3.12290 33163 ft 461 kts 230°
2026-04-15 15:44 44.77827 3.05671 33163 ft 460 kts 230°
2026-04-15 15:44 44.73499 2.99087 33168 ft 457 kts 230°
2026-04-15 15:45 44.69200 2.92535 33167 ft 456 kts 230°
2026-04-15 15:45 44.64899 2.85985 33162 ft 456 kts 230°
2026-04-15 15:46 44.60596 2.79450 33169 ft 456 kts 230°
2026-04-15 15:46 44.56315 2.72963 33176 ft 457 kts 230°
2026-04-15 15:47 44.51986 2.66420 33187 ft 457 kts 230°
2026-04-15 15:47 44.47680 2.59929 33184 ft 453 kts 230°
2026-04-15 15:48 44.43385 2.53468 33184 ft 453 kts 230°
2026-04-15 15:48 44.39090 2.47021 33170 ft 453 kts 230°